Time,TemperatureF,DewpointF,PressureIn,WindDirection,WindDirectionDegrees,WindSpeedMPH,WindSpeedGustMPH,Humidity,HourlyPrecipIn,Conditions,Clouds,dailyrainin,SoftwareType,DateUTC
2013-07-31 00:02:00,61.0,57.0,30.03,WSW,257,5.0,8.0,87,0.00,,,0.01,,2013-07-31 04:02:00,
2013-07-31 00:22:00,61.0,57.0,30.03,WSW,240,4.0,6.0,87,0.00,,,0.01,,2013-07-31 04:22:00,
2013-07-31 00:32:00,61.0,57.0,30.03,WSW,240,4.0,6.0,87,0.00,,,0.01,,2013-07-31 04:32:00,
2013-07-31 00:42:00,61.0,57.0,30.03,WSW,240,4.0,6.0,87,0.00,,,0.01,,2013-07-31 04:42:00,
2013-07-31 00:52:00,61.0,57.0,30.03,WSW,240,4.0,6.0,87,0.00,,,0.01,,2013-07-31 04:52:00,
2013-07-31 01:02:00,61.0,58.0,30.03,WSW,250,2.0,6.0,89,0.00,,,0.01,,2013-07-31 05:02:00,
2013-07-31 01:22:00,60.0,56.0,30.03,WSW,257,4.0,7.0,88,0.00,,,0.01,,2013-07-31 05:22:00,
2013-07-31 01:32:00,61.0,57.0,30.02,WSW,245,4.0,7.0,88,0.00,,,0.01,,2013-07-31 05:32:00,
2013-07-31 01:42:00,60.0,57.0,30.03,West,266,3.0,5.0,89,0.00,,,0.01,,2013-07-31 05:42:00,
2013-07-31 01:52:00,59.0,56.0,30.02,West,259,3.0,5.0,90,0.00,,,0.01,,2013-07-31 05:52:00,
2013-07-31 02:02:00,60.0,57.0,30.02,West,265,3.0,6.0,89,0.00,,,0.01,,2013-07-31 06:02:00,
2013-07-31 02:12:00,60.0,57.0,30.02,West,265,3.0,6.0,89,0.00,,,0.01,,2013-07-31 06:12:00,
2013-07-31 02:22:00,60.0,57.0,30.02,WSW,248,3.0,6.0,89,0.00,,,0.01,,2013-07-31 06:22:00,
2013-07-31 02:32:00,60.0,57.0,30.02,WSW,248,3.0,6.0,89,0.00,,,0.01,,2013-07-31 06:32:00,
2013-07-31 02:43:00,60.0,57.0,30.02,WSW,248,3.0,6.0,89,0.00,,,0.01,,2013-07-31 06:43:00,
2013-07-31 11:53:00,74.0,58.0,30.05,West,262,8.0,14.0,58,0.00,,,0.00,,2013-07-31 15:53:00,
2013-07-31 12:02:00,75.0,57.0,30.05,West,261,7.0,14.0,54,0.00,,,0.00,,2013-07-31 16:02:00,
2013-07-31 12:12:00,75.0,57.0,30.05,West,261,7.0,14.0,54,0.00,,,0.00,,2013-07-31 16:12:00,
2013-07-31 12:22:00,75.0,56.0,30.05,WNW,285,7.0,14.0,52,0.00,,,0.00,,2013-07-31 16:22:00,
2013-07-31 12:33:00,75.0,57.0,30.04,WNW,285,7.0,11.0,53,0.00,,,0.00,,2013-07-31 16:33:00,
2013-07-31 12:44:00,75.0,57.0,30.04,WNW,285,7.0,11.0,53,0.00,,,0.00,,2013-07-31 16:44:00,
2013-07-31 12:53:00,75.0,57.0,30.04,West,269,9.0,16.0,54,0.00,,,0.00,,2013-07-31 16:53:00,
2013-07-31 13:03:00,75.0,56.0,30.04,WSW,248,9.0,15.0,51,0.00,,,0.00,,2013-07-31 17:03:00,
2013-07-31 13:13:00,75.0,56.0,30.04,WSW,248,9.0,15.0,51,0.00,,,0.00,,2013-07-31 17:13:00,
2013-07-31 13:22:00,76.0,57.0,30.03,West,271,9.0,14.0,51,0.00,,,0.00,,2013-07-31 17:22:00,
2013-07-31 13:33:00,76.0,57.0,30.03,West,271,9.0,14.0,51,0.00,,,0.00,,2013-07-31 17:33:00,
2013-07-31 13:43:00,76.0,59.0,30.03,WSW,244,7.0,15.0,55,0.00,,,0.00,,2013-07-31 17:43:00,
2013-07-31 13:53:00,77.0,57.0,30.03,West,268,9.0,14.0,50,0.00,,,0.00,,2013-07-31 17:53:00,
2013-07-31 14:02:00,77.0,56.0,30.04,WNW,296,6.0,12.0,48,0.00,,,0.00,,2013-07-31 18:02:00,
2013-07-31 14:13:00,77.0,56.0,30.04,WNW,296,6.0,12.0,48,0.00,,,0.00,,2013-07-31 18:13:00,
2013-07-31 14:23:00,77.0,56.0,30.04,WNW,296,6.0,12.0,48,0.00,,,0.00,,2013-07-31 18:23:00,
2013-07-31 14:33:00,75.0,58.0,30.04,SW,215,4.0,14.0,55,0.00,,,0.00,,2013-07-31 18:33:00,
2013-07-31 14:43:00,75.0,58.0,30.04,SW,215,4.0,14.0,55,0.00,,,0.00,,2013-07-31 18:43:00,
2013-07-31 14:52:00,75.0,57.0,30.04,SW,229,7.0,14.0,54,0.00,,,0.00,,2013-07-31 18:52:00,
2013-07-31 15:03:00,75.0,57.0,30.04,SW,229,7.0,14.0,54,0.00,,,0.00,,2013-07-31 19:03:00,
2013-07-31 15:12:00,75.0,57.0,30.04,South,184,9.0,17.0,54,0.00,,,0.00,,2013-07-31 19:12:00,
2013-07-31 15:23:00,75.0,58.0,30.04,SSE,157,5.0,13.0,55,0.00,,,0.00,,2013-07-31 19:23:00,
2013-07-31 15:33:00,75.0,58.0,30.04,SSE,157,5.0,13.0,55,0.00,,,0.00,,2013-07-31 19:33:00,
2013-07-31 15:43:00,74.0,58.0,30.04,SSE,158,5.0,13.0,57,0.00,,,0.00,,2013-07-31 19:43:00,
2013-07-31 15:53:00,73.0,58.0,30.03,SSE,162,6.0,14.0,59,0.00,,,0.00,,2013-07-31 19:53:00,
2013-07-31 16:03:00,73.0,57.0,30.03,South,186,7.0,13.0,58,0.00,,,0.00,,2013-07-31 20:03:00,
2013-07-31 16:12:00,73.0,57.0,30.03,South,186,7.0,13.0,58,0.00,,,0.00,,2013-07-31 20:12:00,
2013-07-31 16:23:00,73.0,57.0,30.03,South,169,7.0,16.0,57,0.00,,,0.00,,2013-07-31 20:23:00,
2013-07-31 16:43:00,73.0,56.0,30.03,SW,229,6.0,13.0,55,0.00,,,0.00,,2013-07-31 20:43:00,
2013-07-31 16:53:00,72.0,55.0,30.03,WSW,239,6.0,13.0,55,0.00,,,0.00,,2013-07-31 20:53:00,
2013-07-31 17:03:00,72.0,54.0,30.03,SSW,196,4.0,13.0,54,0.00,,,0.00,,2013-07-31 21:03:00,
2013-07-31 17:13:00,72.0,54.0,30.03,SSW,196,4.0,13.0,54,0.00,,,0.00,,2013-07-31 21:13:00,
2013-07-31 17:22:00,70.0,55.0,30.03,South,190,3.0,16.0,59,0.00,,,0.00,,2013-07-31 21:22:00,
2013-07-31 17:43:00,71.0,57.0,30.02,South,184,4.0,9.0,61,0.00,,,0.00,,2013-07-31 21:43:00,
2013-07-31 17:53:00,71.0,56.0,30.02,SSW,194,5.0,11.0,59,0.00,,,0.00,,2013-07-31 21:53:00,
2013-07-31 18:02:00,70.0,56.0,30.03,SW,236,4.0,11.0,62,0.00,,,0.00,,2013-07-31 22:02:00,
2013-07-31 18:13:00,70.0,56.0,30.03,SW,236,4.0,11.0,62,0.00,,,0.00,,2013-07-31 22:13:00,
2013-07-31 18:22:00,70.0,57.0,30.03,SSW,203,6.0,10.0,63,0.00,,,0.00,,2013-07-31 22:22:00,
2013-07-31 18:33:00,70.0,57.0,30.03,SSW,203,6.0,10.0,63,0.00,,,0.00,,2013-07-31 22:33:00,
2013-07-31 18:43:00,70.0,56.0,30.03,SSW,196,3.0,10.0,61,0.00,,,0.00,,2013-07-31 22:43:00,
2013-07-31 18:53:00,69.0,55.0,30.03,WSW,240,6.0,11.0,61,0.00,,,0.00,,2013-07-31 22:53:00,
2013-07-31 19:02:00,69.0,55.0,30.03,WSW,240,6.0,11.0,61,0.00,,,0.00,,2013-07-31 23:02:00,
2013-07-31 19:12:00,69.0,55.0,30.03,South,190,5.0,11.0,61,0.00,,,0.00,,2013-07-31 23:12:00,
2013-07-31 19:22:00,69.0,55.0,30.03,WSW,237,2.0,12.0,62,0.00,,,0.00,,2013-07-31 23:22:00,
2013-07-31 19:32:00,68.0,55.0,30.03,SSW,200,6.0,10.0,64,0.00,,,0.00,,2013-07-31 23:32:00,
2013-07-31 19:42:00,68.0,55.0,30.03,SSW,200,6.0,10.0,64,0.00,,,0.00,,2013-07-31 23:42:00,
2013-07-31 19:52:00,66.0,55.0,30.03,WSW,250,5.0,10.0,68,0.00,,,0.00,,2013-07-31 23:52:00,
2013-07-31 20:03:00,66.0,56.0,30.02,West,271,4.0,8.0,70,0.00,,,0.00,,2013-08-01 00:03:00,
2013-07-31 20:12:00,66.0,56.0,30.03,SW,225,2.0,7.0,71,0.00,,,0.00,,2013-08-01 00:12:00,
2013-07-31 20:22:00,65.0,56.0,30.03,SW,226,4.0,8.0,73,0.00,,,0.00,,2013-08-01 00:22:00,
2013-07-31 20:32:00,65.0,57.0,30.03,WSW,242,3.0,6.0,75,0.00,,,0.00,,2013-08-01 00:32:00,
2013-07-31 20:43:00,65.0,57.0,30.03,SW,231,4.0,7.0,76,0.00,,,0.00,,2013-08-01 00:43:00,
2013-07-31 20:52:00,65.0,58.0,30.03,SW,225,6.0,9.0,77,0.00,,,0.00,,2013-08-01 00:52:00,
2013-07-31 21:03:00,64.0,57.0,30.03,SSE,165,5.0,9.0,78,0.00,,,0.00,,2013-08-01 01:03:00,
2013-07-31 21:12:00,65.0,58.0,30.03,SSW,203,5.0,10.0,78,0.00,,,0.00,,2013-08-01 01:12:00,
2013-07-31 21:22:00,65.0,59.0,30.03,SW,228,4.0,9.0,80,0.00,,,0.00,,2013-08-01 01:22:00,
2013-07-31 21:33:00,64.0,58.0,30.03,SSW,197,5.0,10.0,80,0.00,,,0.00,,2013-08-01 01:33:00,
2013-07-31 21:43:00,65.0,59.0,30.03,SW,235,5.0,10.0,81,0.00,,,0.00,,2013-08-01 01:43:00,
2013-07-31 21:53:00,65.0,59.0,30.03,SW,217,4.0,9.0,81,0.00,,,0.00,,2013-08-01 01:53:00,
2013-07-31 22:02:00,65.0,59.0,30.03,SW,217,4.0,9.0,81,0.00,,,0.00,,2013-08-01 02:02:00,
2013-07-31 22:22:00,64.0,59.0,30.03,WSW,237,4.0,7.0,83,0.00,,,0.00,,2013-08-01 02:22:00,
2013-07-31 22:32:00,64.0,59.0,30.03,WSW,245,3.0,8.0,83,0.00,,,0.00,,2013-08-01 02:32:00,
2013-07-31 22:52:00,63.0,58.0,30.03,WSW,256,3.0,5.0,85,0.00,,,0.00,,2013-08-01 02:52:00,
2013-07-31 23:32:00,63.0,59.0,30.03,SW,228,4.0,5.0,87,0.00,,,0.00,,2013-08-01 03:32:00,
2013-07-31 23:53:00,62.0,58.0,30.04,South,190,2.0,4.0,88,0.00,,,0.00,,2013-08-01 03:53:00,